Tracking 18957 objects as of 22-Jan-2018
HD Live streaming from Space Station
objects crossing your sky now

FENGYUN 1C DEB

Track FENGYUN 1C DEB now!
10-day predictions


NORAD ID: 30474
Int'l Code: 1999-025AGM
Perigee: 822.3 km
Apogee: 864.0 km
Inclination: 99.0 °
Period: 101.6 minutes
Semi major axis: 7214 km
RCS: 0.027 m2 (small)
Launch date: May 10, 1999
Source: People's Republic of China (PRC)
Launch site: Taiyaun Space Center, China (TSC)

Note: This is SATELLITE DEBRIS
aabbcc
Your satellite tracking list
Your tracking list is empty




NASA's NSSDC Master Catalog

Two Line Element Set (TLE):
1 30474U 99025AGM 18022.52125417  .00000914  00000-0  47722-3 0  9992
2 30474  98.9912   7.6821 0028868 346.0527 139.6181 14.16848284565338
Source of the keplerian elements: AFSPC